Regional Weather Roundup
Issued by NWS

Home | Current Version | Previous Version | Text Only | Print | Product List | Glossary Off
Versions: 1 2 3 4 5 6 7 8 9 10 11 12 13 14 15 16 17 18 19 20 21 22 23 24 25 26 27 28 29 30 31 32 33 34 35 36 37 38 39 40 41 42 43 44 45 46 47 48 49 50

000
ASUS43 KLSX 161907
RWRMO

WEATHER SUMMARY FOR MISSOURI
NATIONAL WEATHER SERVICE SPRINGFIELD MO
200 PM CDT WED APR 16 2014

NOTE: "FAIR" INDICATES FEW OR NO CLOUDS BELOW 12,000 FEET WITH NO
       SIGNIFICANT WEATHER AND/OR OBSTRUCTIONS TO VISIBILITY.
       CURRENT SKY AND/OR WEATHER CONDITIONS ARE NOT AVAILABLE FOR
       CHILLICOTHE AND FARMINGTON.

MOZ001>031-035>038-043-044-053-054-162000-
...NORTHERN AND WESTERN MISSOURI...

CITY           SKY/WX    TMP DP  RH WIND       PRES   REMARKS
KANSAS CTY INT PTSUNNY   63  31  30 S29G44    29.86F
KANSAS C DTWN  MOSUNNY   64  30  27 S32G41    29.89F
LEE`S SUMMIT   SUNNY     62  31  31 S21G37    29.90F
ST JOSEPH      PTSUNNY   63  30  28 S33G45    29.84S
CHILLICOTHE      N/A     62  33  33 S22G36    29.91F
KIRKSVILLE     SUNNY     62  31  31 S26G36    29.97F

$$
MOZ066>068-077>081-088>096-101>105-162000-
...SOUTHWEST MISSOURI...

CITY           SKY/WX    TMP DP  RH WIND       PRES   REMARKS
SPRINGFIELD    SUNNY     58  31  35 S22G32    30.04F
JOPLIN         SUNNY     62  31  31 S23G32    29.99F

$$
MOZ032>034-039>042-045>050-055>058-069>072-162000-
...CENTRAL MISSOURI...

CITY           SKY/WX    TMP DP  RH WIND       PRES   REMARKS
COLUMBIA       SUNNY     60  28  29 S25G35    30.04F
JEFFERSON CITY SUNNY     58  26  29 S23G30    30.06F
ROLLA          MOSUNNY   56  29  35 S26G37    30.08F
SEDALIA        SUNNY     63  32  31 S25G35    29.99F
WHITEMAN AFB   SUNNY     61  31  31 S24G37    29.95F
OSAGE BEACH    SUNNY     57  25  28 S22G29    30.07F

$$
MOZ051-052-059>065-162000-
...EAST CENTRAL MISSOURI...

CITY           SKY/WX    TMP DP  RH WIND       PRES   REMARKS
ST LOUIS INTL  PTSUNNY   56  24  29 S18G26    30.17F
SPIRIT OF STL  PTSUNNY   57  24  28 SE16      30.14F
ST CHARLES     SUNNY     55  30  38 SE26G33   30.15F

$$
MOZ072>076-082>087-097>100-106>115-162000-
...SOUTH CENTRAL AND SOUTHEAST MISSOURI...

CITY           SKY/WX    TMP DP  RH WIND       PRES   REMARKS
CAPE GIRARDEAU SUNNY     54  31  41 S10       30.23F
FARMINGTON     MOSUNNY   54  25  32 SE16G24   30.19F
POPLAR BLUFF   SUNNY     53  30  41 VRB6      30.21F
WEST PLAINS    PTSUNNY   52  23  32 SE14G24   30.14F

$$



USA.gov is the U.S. government's official web portal to all federal, state and local government web resources and services.